owner,sensor,date,latitude,longitude,air_temperature,qcFlag 
COMPS,ioos:station:USF.COMPS:C12:1,2014-12-11T02:35:00Z,27.4980,-83.7220,28.84,1111122 
COMPS,ioos:station:USF.COMPS:C12:1,2014-12-11T03:05:00Z,27.4980,-83.7220,17.25,1111122 
COMPS,ioos:station:USF.COMPS:C12:1,2014-12-11T03:35:00Z,27.4980,-83.7220,17.35,1111122 
COMPS,ioos:station:USF.COMPS:C12:1,2014-12-11T04:05:00Z,27.4980,-83.7220,17.08,1111122 
COMPS,ioos:station:USF.COMPS:C12:1,2014-12-11T04:35:00Z,27.4980,-83.7220,17.07,1111122 
COMPS,ioos:station:USF.COMPS:C12:1,2014-12-11T05:05:00Z,27.4980,-83.7220,17.06,1111122 
COMPS,ioos:station:USF.COMPS:C12:1,2014-12-11T05:35:00Z,27.4980,-83.7220,17.17,1111122 
COMPS,ioos:station:USF.COMPS:C12:1,2014-12-11T06:05:00Z,27.4980,-83.7220,17.0,1111122 
COMPS,ioos:station:USF.COMPS:C12:1,2014-12-11T06:35:00Z,27.4980,-83.7220,17.12,1111122 
COMPS,ioos:station:USF.COMPS:C12:1,2014-12-11T07:05:00Z,27.4980,-83.7220,17.44,1111122 
COMPS,ioos:station:USF.COMPS:C12:1,2014-12-11T07:35:00Z,27.4980,-83.7220,17.34,1111122 
COMPS,ioos:station:USF.COMPS:C12:1,2014-12-11T08:05:00Z,27.4980,-83.7220,17.49,1111122 
COMPS,ioos:station:USF.COMPS:C12:1,2014-12-11T08:35:00Z,27.4980,-83.7220,17.47,1111122 
COMPS,ioos:station:USF.COMPS:C12:1,2014-12-11T09:05:00Z,27.4980,-83.7220,17.53,1111122 
COMPS,ioos:station:USF.COMPS:C12:1,2014-12-11T09:35:00Z,27.4980,-83.7220,17.69,1111122 
COMPS,ioos:station:USF.COMPS:C12:1,2014-12-11T10:05:00Z,27.4980,-83.7220,17.6,1111122 
COMPS,ioos:station:USF.COMPS:C12:1,2014-12-11T10:35:00Z,27.4980,-83.7220,17.23,1111122 
COMPS,ioos:station:USF.COMPS:C12:1,2014-12-11T11:05:00Z,27.4980,-83.7220,16.96,1111122 
COMPS,ioos:station:USF.COMPS:C12:1,2014-12-11T11:35:00Z,27.4980,-83.7220,16.98,1111122 
COMPS,ioos:station:USF.COMPS:C12:1,2014-12-11T12:05:00Z,27.4980,-83.7220,16.99,1111122 
COMPS,ioos:station:USF.COMPS:C12:1,2014-12-11T12:35:00Z,27.4980,-83.7220,17.56,1111122 
COMPS,ioos:station:USF.COMPS:C12:1,2014-12-11T13:05:00Z,27.4980,-83.7220,17.67,1111122 
COMPS,ioos:station:USF.COMPS:C12:1,2014-12-11T13:35:00Z,27.4980,-83.7220,18.13,1111122 
COMPS,ioos:station:USF.COMPS:C12:1,2014-12-11T14:05:00Z,27.4980,-83.7220,17.87,1111122 
COMPS,ioos:station:USF.COMPS:C12:1,2014-12-11T14:35:00Z,27.4980,-83.7220,18.24,1111122 
COMPS,ioos:station:USF.COMPS:C12:1,2014-12-11T15:05:00Z,27.4980,-83.7220,18.29,1111122 
COMPS,ioos:station:USF.COMPS:C12:1,2014-12-11T15:35:00Z,27.4980,-83.7220,18.27,1111122 
COMPS,ioos:station:USF.COMPS:C12:1,2014-12-11T16:05:00Z,27.4980,-83.7220,18.38,1111122 
COMPS,ioos:station:USF.COMPS:C12:1,2014-12-11T16:35:00Z,27.4980,-83.7220,18.42,1111122 
COMPS,ioos:station:USF.COMPS:C12:1,2014-12-11T17:05:00Z,27.4980,-83.7220,18.63,1111122 
COMPS,ioos:station:USF.COMPS:C12:1,2014-12-11T17:35:00Z,27.4980,-83.7220,18.41,1111122 
COMPS,ioos:station:USF.COMPS:C12:1,2014-12-11T18:05:00Z,27.4980,-83.7220,18.18,1111122 
COMPS,ioos:station:USF.COMPS:C12:1,2014-12-11T18:35:00Z,27.4980,-83.7220,18.33,1111122 
COMPS,ioos:station:USF.COMPS:C12:1,2014-12-11T19:05:00Z,27.4980,-83.7220,18.55,1111122 
COMPS,ioos:station:USF.COMPS:C12:1,2014-12-11T19:35:00Z,27.4980,-83.7220,19.31,1111122 
COMPS,ioos:station:USF.COMPS:C12:1,2014-12-11T20:05:00Z,27.4980,-83.7220,18.87,1111122 
COMPS,ioos:station:USF.COMPS:C12:1,2014-12-11T20:35:00Z,27.4980,-83.7220,18.03,1111122 
COMPS,ioos:station:USF.COMPS:C12:1,2014-12-11T21:05:00Z,27.4980,-83.7220,17.86,1111122 
COMPS,ioos:station:USF.COMPS:C12:1,2014-12-11T21:35:00Z,27.4980,-83.7220,17.71,1111122 
COMPS,ioos:station:USF.COMPS:C12:1,2014-12-11T22:05:00Z,27.4980,-83.7220,17.72,1111122 
COMPS,ioos:station:USF.COMPS:C12:1,2014-12-11T22:35:00Z,27.4980,-83.7220,17.77,1111122 
COMPS,ioos:station:USF.COMPS:C12:1,2014-12-11T23:05:00Z,27.4980,-83.7220,17.66,1111122 
COMPS,ioos:station:USF.COMPS:C12:1,2014-12-11T23:35:00Z,27.4980,-83.7220,17.64,1111122 
COMPS,ioos:station:USF.COMPS:C12:1,2014-12-12T00:05:00Z,27.4980,-83.7220,17.73,1111122 
COMPS,ioos:station:USF.COMPS:C12:1,2014-12-12T00:35:00Z,27.4980,-83.7220,17.74,1111122 
COMPS,ioos:station:USF.COMPS:C12:1,2014-12-12T01:05:00Z,27.4980,-83.7220,17.98,1111122 
COMPS,ioos:station:USF.COMPS:C12:1,2014-12-12T01:35:00Z,27.4980,-83.7220,17.95,1111122 
COMPS,ioos:station:USF.COMPS:C12:1,2014-12-12T02:05:00Z,27.4980,-83.7220,17.76,1111122 
COMPS,ioos:station:USF.COMPS:C12:1,2014-12-12T02:35:00Z,27.4980,-83.7220,17.61,1111122 
COMPS,ioos:station:USF.COMPS:C12:1,2014-12-12T03:05:00Z,27.4980,-83.7220,17.9,1111122 
COMPS,ioos:station:USF.COMPS:C12:1,2014-12-12T03:35:00Z,27.4980,-83.7220,17.97,1111122 
COMPS,ioos:station:USF.COMPS:C12:1,2014-12-12T04:05:00Z,27.4980,-83.7220,18.07,1111122 
COMPS,ioos:station:USF.COMPS:C12:1,2014-12-12T04:35:00Z,27.4980,-83.7220,17.95,1111122 
COMPS,ioos:station:USF.COMPS:C12:1,2014-12-12T05:05:00Z,27.4980,-83.7220,18.0,1111122 
COMPS,ioos:station:USF.COMPS:C12:1,2014-12-12T05:35:00Z,27.4980,-83.7220,18.02,1111122 
COMPS,ioos:station:USF.COMPS:C12:1,2014-12-12T06:05:00Z,27.4980,-83.7220,17.81,1111122 
COMPS,ioos:station:USF.COMPS:C12:1,2014-12-12T06:35:00Z,27.4980,-83.7220,17.53,1111122 
COMPS,ioos:station:USF.COMPS:C12:1,2014-12-12T07:05:00Z,27.4980,-83.7220,17.29,1111122 
COMPS,ioos:station:USF.COMPS:C12:1,2014-12-12T07:35:00Z,27.4980,-83.7220,17.22,1111122 
COMPS,ioos:station:USF.COMPS:C12:1,2014-12-12T08:05:00Z,27.4980,-83.7220,17.13,1111122 
COMPS,ioos:station:USF.COMPS:C12:1,2014-12-12T08:35:00Z,27.4980,-83.7220,17.27,1111122 
COMPS,ioos:station:USF.COMPS:C12:1,2014-12-12T09:05:00Z,27.4980,-83.7220,17.18,1111122 
COMPS,ioos:station:USF.COMPS:C12:1,2014-12-12T09:35:00Z,27.4980,-83.7220,17.04,1111122 
COMPS,ioos:station:USF.COMPS:C12:1,2014-12-12T10:05:00Z,27.4980,-83.7220,17.06,1111122 
COMPS,ioos:station:USF.COMPS:C12:1,2014-12-12T10:35:00Z,27.4980,-83.7220,16.89,1111122 
COMPS,ioos:station:USF.COMPS:C12:1,2014-12-12T11:05:00Z,27.4980,-83.7220,16.75,1111122 
COMPS,ioos:station:USF.COMPS:C12:1,2014-12-12T11:35:00Z,27.4980,-83.7220,16.78,1111122 
COMPS,ioos:station:USF.COMPS:C12:1,2014-12-12T12:05:00Z,27.4980,-83.7220,16.78,1111122 
COMPS,ioos:station:USF.COMPS:C12:1,2014-12-12T12:35:00Z,27.4980,-83.7220,16.66,1111122 
COMPS,ioos:station:USF.COMPS:C12:1,2014-12-12T13:05:00Z,27.4980,-83.7220,16.74,1111122 
COMPS,ioos:station:USF.COMPS:C12:1,2014-12-12T13:35:00Z,27.4980,-83.7220,16.58,1111122 
COMPS,ioos:station:USF.COMPS:C12:1,2014-12-12T14:05:00Z,27.4980,-83.7220,16.29,1111122 
COMPS,ioos:station:USF.COMPS:C12:1,2014-12-12T14:35:00Z,27.4980,-83.7220,16.11,1111122 
COMPS,ioos:station:USF.COMPS:C12:1,2014-12-12T15:05:00Z,27.4980,-83.7220,16.01,1111122 
COMPS,ioos:station:USF.COMPS:C12:1,2014-12-12T15:35:00Z,27.4980,-83.7220,15.91,1111122 
COMPS,ioos:station:USF.COMPS:C12:1,2014-12-12T16:05:00Z,27.4980,-83.7220,15.93,1111122 
COMPS,ioos:station:USF.COMPS:C12:1,2014-12-12T16:35:00Z,27.4980,-83.7220,15.8,1111122 
COMPS,ioos:station:USF.COMPS:C12:1,2014-12-12T17:05:00Z,27.4980,-83.7220,15.73,1111122 
COMPS,ioos:station:USF.COMPS:C12:1,2014-12-12T17:35:00Z,27.4980,-83.7220,15.71,1111122 
COMPS,ioos:station:USF.COMPS:C12:1,2014-12-12T18:05:00Z,27.4980,-83.7220,15.79,1111122 
COMPS,ioos:station:USF.COMPS:C12:1,2014-12-12T18:35:00Z,27.4980,-83.7220,15.86,1111122 
COMPS,ioos:station:USF.COMPS:C12:1,2014-12-12T19:05:00Z,27.4980,-83.7220,15.89,1111122 
COMPS,ioos:station:USF.COMPS:C12:1,2014-12-12T19:35:00Z,27.4980,-83.7220,15.91,1111122 
COMPS,ioos:station:USF.COMPS:C12:1,2014-12-12T20:05:00Z,27.4980,-83.7220,16.1,1111122 
COMPS,ioos:station:USF.COMPS:C12:1,2014-12-12T20:35:00Z,27.4980,-83.7220,16.09,1111122 
COMPS,ioos:station:USF.COMPS:C12:1,2014-12-12T21:05:00Z,27.4980,-83.7220,16.45,1111122 
COMPS,ioos:station:USF.COMPS:C12:1,2014-12-12T21:35:00Z,27.4980,-83.7220,16.49,1111122 
COMPS,ioos:station:USF.COMPS:C12:1,2014-12-12T22:05:00Z,27.4980,-83.7220,16.53,1111122 
COMPS,ioos:station:USF.COMPS:C12:1,2014-12-12T22:35:00Z,27.4980,-83.7220,16.65,1111122 
COMPS,ioos:station:USF.COMPS:C12:1,2014-12-12T23:05:00Z,27.4980,-83.7220,16.59,1111122 
COMPS,ioos:station:USF.COMPS:C12:1,2014-12-12T23:35:00Z,27.4980,-83.7220,16.85,1111122 
COMPS,ioos:station:USF.COMPS:C12:1,2014-12-13T00:05:00Z,27.4980,-83.7220,16.99,1111122 
COMPS,ioos:station:USF.COMPS:C12:1,2014-12-13T00:35:00Z,27.4980,-83.7220,17.16,1111122 
COMPS,ioos:station:USF.COMPS:C12:1,2014-12-13T01:05:00Z,27.4980,-83.7220,17.32,1111122 
COMPS,ioos:station:USF.COMPS:C12:1,2014-12-13T01:35:00Z,27.4980,-83.7220,17.48,1111122 
COMPS,ioos:station:USF.COMPS:C12:1,2014-12-13T02:05:00Z,27.4980,-83.7220,17.55,1111122 
COMPS,ioos:station:USF.COMPS:C12:1,2014-12-13T02:35:00Z,27.4980,-83.7220,17.52,1111122 
COMPS,ioos:station:USF.COMPS:C12:1,2014-12-13T03:05:00Z,27.4980,-83.7220,17.71,1111122 
COMPS,ioos:station:USF.COMPS:C12:1,2014-12-13T03:35:00Z,27.4980,-83.7220,17.76,1111122 
COMPS,ioos:station:USF.COMPS:C12:1,2014-12-13T04:05:00Z,27.4980,-83.7220,17.77,1111122 
COMPS,ioos:station:USF.COMPS:C12:1,2014-12-13T04:35:00Z,27.4980,-83.7220,17.79,1111122 
COMPS,ioos:station:USF.COMPS:C12:1,2014-12-13T05:05:00Z,27.4980,-83.7220,17.89,1111122 
COMPS,ioos:station:USF.COMPS:C12:1,2014-12-13T05:35:00Z,27.4980,-83.7220,17.75,1111122 
COMPS,ioos:station:USF.COMPS:C12:1,2014-12-13T06:05:00Z,27.4980,-83.7220,17.77,1111122 
COMPS,ioos:station:USF.COMPS:C12:1,2014-12-13T06:35:00Z,27.4980,-83.7220,17.77,1111122 
COMPS,ioos:station:USF.COMPS:C12:1,2014-12-13T07:05:00Z,27.4980,-83.7220,17.74,1111122 
COMPS,ioos:station:USF.COMPS:C12:1,2014-12-13T07:35:00Z,27.4980,-83.7220,17.59,1111122 
COMPS,ioos:station:USF.COMPS:C12:1,2014-12-13T08:05:00Z,27.4980,-83.7220,17.53,1111122 
COMPS,ioos:station:USF.COMPS:C12:1,2014-12-13T08:35:00Z,27.4980,-83.7220,17.48,1111122 
COMPS,ioos:station:USF.COMPS:C12:1,2014-12-13T09:05:00Z,27.4980,-83.7220,17.45,1111122 
COMPS,ioos:station:USF.COMPS:C12:1,2014-12-13T09:35:00Z,27.4980,-83.7220,17.47,1111122 
COMPS,ioos:station:USF.COMPS:C12:1,2014-12-13T10:05:00Z,27.4980,-83.7220,17.45,1111122 
COMPS,ioos:station:USF.COMPS:C12:1,2014-12-13T10:35:00Z,27.4980,-83.7220,17.44,1111122 
COMPS,ioos:station:USF.COMPS:C12:1,2014-12-13T11:05:00Z,27.4980,-83.7220,17.43,1111122 
COMPS,ioos:station:USF.COMPS:C12:1,2014-12-13T11:35:00Z,27.4980,-83.7220,17.46,1111122 
COMPS,ioos:station:USF.COMPS:C12:1,2014-12-13T12:05:00Z,27.4980,-83.7220,17.47,1111122 
COMPS,ioos:station:USF.COMPS:C12:1,2014-12-13T12:35:00Z,27.4980,-83.7220,17.51,1111122 
COMPS,ioos:station:USF.COMPS:C12:1,2014-12-13T13:05:00Z,27.4980,-83.7220,17.68,1111122 
COMPS,ioos:station:USF.COMPS:C12:1,2014-12-13T13:35:00Z,27.4980,-83.7220,17.83,1111122 
COMPS,ioos:station:USF.COMPS:C12:1,2014-12-13T14:05:00Z,27.4980,-83.7220,17.83,1111122 
COMPS,ioos:station:USF.COMPS:C12:1,2014-12-13T14:35:00Z,27.4980,-83.7220,17.88,1111122 
COMPS,ioos:station:USF.COMPS:C12:1,2014-12-13T15:05:00Z,27.4980,-83.7220,17.82,1111122 
COMPS,ioos:station:USF.COMPS:C12:1,2014-12-13T15:35:00Z,27.4980,-83.7220,17.78,1111122 
COMPS,ioos:station:USF.COMPS:C12:1,2014-12-13T16:05:00Z,27.4980,-83.7220,17.74,1111122 
COMPS,ioos:station:USF.COMPS:C12:1,2014-12-13T16:35:00Z,27.4980,-83.7220,17.7,1111122 
COMPS,ioos:station:USF.COMPS:C12:1,2014-12-13T17:05:00Z,27.4980,-83.7220,17.72,1111122 
COMPS,ioos:station:USF.COMPS:C12:1,2014-12-13T17:35:00Z,27.4980,-83.7220,17.74,1111122 
COMPS,ioos:station:USF.COMPS:C12:1,2014-12-13T18:05:00Z,27.4980,-83.7220,17.78,1111122 
COMPS,ioos:station:USF.COMPS:C12:1,2014-12-13T18:35:00Z,27.4980,-83.7220,17.9,1111122 
COMPS,ioos:station:USF.COMPS:C12:1,2014-12-13T19:05:00Z,27.4980,-83.7220,18.0,1111122 
COMPS,ioos:station:USF.COMPS:C12:1,2014-12-13T19:35:00Z,27.4980,-83.7220,18.02,1111122 
COMPS,ioos:station:USF.COMPS:C12:1,2014-12-13T20:05:00Z,27.4980,-83.7220,18.0,1111122 
COMPS,ioos:station:USF.COMPS:C12:1,2014-12-13T20:35:00Z,27.4980,-83.7220,18.03,1111122 
COMPS,ioos:station:USF.COMPS:C12:1,2014-12-13T21:05:00Z,27.4980,-83.7220,18.16,1111122 
COMPS,ioos:station:USF.COMPS:C12:1,2014-12-13T21:35:00Z,27.4980,-83.7220,18.26,1111122 
COMPS,ioos:station:USF.COMPS:C12:1,2014-12-13T22:05:00Z,27.4980,-83.7220,18.31,1111122 
COMPS,ioos:station:USF.COMPS:C12:1,2014-12-13T22:35:00Z,27.4980,-83.7220,18.09,1111122 
COMPS,ioos:station:USF.COMPS:C12:1,2014-12-13T23:05:00Z,27.4980,-83.7220,18.25,1111122 
COMPS,ioos:station:USF.COMPS:C12:1,2014-12-13T23:35:00Z,27.4980,-83.7220,18.31,1111122 
COMPS,ioos:station:USF.COMPS:C12:1,2014-12-14T00:05:00Z,27.4980,-83.7220,18.35,1111122 
COMPS,ioos:station:USF.COMPS:C12:1,2014-12-14T00:35:00Z,27.4980,-83.7220,18.24,1111122 
COMPS,ioos:station:USF.COMPS:C12:1,2014-12-14T01:05:00Z,27.4980,-83.7220,18.24,1111122 
COMPS,ioos:station:USF.COMPS:C12:1,2014-12-14T01:35:00Z,27.4980,-83.7220,18.23,1111122 
COMPS,ioos:station:USF.COMPS:C12:1,2014-12-14T02:05:00Z,27.4980,-83.7220,18.32,1111122 
COMPS,ioos:station:USF.COMPS:C12:1,2014-12-14T02:35:00Z,27.4980,-83.7220,18.37,1111122 
COMPS,ioos:station:USF.COMPS:C12:1,2014-12-14T03:05:00Z,27.4980,-83.7220,18.39,1111122 
COMPS,ioos:station:USF.COMPS:C12:1,2014-12-14T03:35:00Z,27.4980,-83.7220,18.27,1111122 
COMPS,ioos:station:USF.COMPS:C12:1,2014-12-14T04:05:00Z,27.4980,-83.7220,18.28,1111122 
COMPS,ioos:station:USF.COMPS:C12:1,2014-12-14T04:35:00Z,27.4980,-83.7220,18.27,1111122 
COMPS,ioos:station:USF.COMPS:C12:1,2014-12-14T05:05:00Z,27.4980,-83.7220,18.21,1111122 
COMPS,ioos:station:USF.COMPS:C12:1,2014-12-14T05:35:00Z,27.4980,-83.7220,18.06,1111122 
COMPS,ioos:station:USF.COMPS:C12:1,2014-12-14T06:05:00Z,27.4980,-83.7220,18.08,1111122 
COMPS,ioos:station:USF.COMPS:C12:1,2014-12-14T06:35:00Z,27.4980,-83.7220,18.11,1111122 
COMPS,ioos:station:USF.COMPS:C12:1,2014-12-14T07:05:00Z,27.4980,-83.7220,18.13,1111122 
COMPS,ioos:station:USF.COMPS:C12:1,2014-12-14T07:35:00Z,27.4980,-83.7220,18.08,1111122 
COMPS,ioos:station:USF.COMPS:C12:1,2014-12-14T08:05:00Z,27.4980,-83.7220,18.09,1111122 
COMPS,ioos:station:USF.COMPS:C12:1,2014-12-14T08:35:00Z,27.4980,-83.7220,18.08,1111122 
COMPS,ioos:station:USF.COMPS:C12:1,2014-12-14T09:05:00Z,27.4980,-83.7220,17.99,1111122 
COMPS,ioos:station:USF.COMPS:C12:1,2014-12-14T09:35:00Z,27.4980,-83.7220,18.03,1111122 
COMPS,ioos:station:USF.COMPS:C12:1,2014-12-14T10:05:00Z,27.4980,-83.7220,17.94,1111122 
COMPS,ioos:station:USF.COMPS:C12:1,2014-12-14T10:35:00Z,27.4980,-83.7220,17.99,1111122 
COMPS,ioos:station:USF.COMPS:C12:1,2014-12-14T11:05:00Z,27.4980,-83.7220,17.94,1111122 
COMPS,ioos:station:USF.COMPS:C12:1,2014-12-14T11:35:00Z,27.4980,-83.7220,17.81,1111122 
COMPS,ioos:station:USF.COMPS:C12:1,2014-12-14T12:05:00Z,27.4980,-83.7220,17.82,1111122 
COMPS,ioos:station:USF.COMPS:C12:1,2014-12-14T12:35:00Z,27.4980,-83.7220,17.91,1111122 
COMPS,ioos:station:USF.COMPS:C12:1,2014-12-14T13:05:00Z,27.4980,-83.7220,18.19,1111122 
COMPS,ioos:station:USF.COMPS:C12:1,2014-12-14T13:35:00Z,27.4980,-83.7220,18.32,1111122 
COMPS,ioos:station:USF.COMPS:C12:1,2014-12-14T14:05:00Z,27.4980,-83.7220,18.38,1111122 
COMPS,ioos:station:USF.COMPS:C12:1,2014-12-14T14:35:00Z,27.4980,-83.7220,18.46,1111122 
COMPS,ioos:station:USF.COMPS:C12:1,2014-12-14T15:05:00Z,27.4980,-83.7220,18.51,1111122 
COMPS,ioos:station:USF.COMPS:C12:1,2014-12-14T15:35:00Z,27.4980,-83.7220,18.43,1111122 
COMPS,ioos:station:USF.COMPS:C12:1,2014-12-14T16:05:00Z,27.4980,-83.7220,18.45,1111122 
COMPS,ioos:station:USF.COMPS:C12:1,2014-12-14T16:35:00Z,27.4980,-83.7220,18.43,1111122 
COMPS,ioos:station:USF.COMPS:C12:1,2014-12-14T17:05:00Z,27.4980,-83.7220,18.47,1111122 
COMPS,ioos:station:USF.COMPS:C12:1,2014-12-14T17:35:00Z,27.4980,-83.7220,18.17,1111122 
COMPS,ioos:station:USF.COMPS:C12:1,2014-12-14T18:05:00Z,27.4980,-83.7220,18.22,1111122 
COMPS,ioos:station:USF.COMPS:C12:1,2014-12-14T18:35:00Z,27.4980,-83.7220,18.32,1111122 
COMPS,ioos:station:USF.COMPS:C12:1,2014-12-14T19:05:00Z,27.4980,-83.7220,18.33,1111122 
COMPS,ioos:station:USF.COMPS:C12:1,2014-12-14T19:35:00Z,27.4980,-83.7220,18.52,1111122 
COMPS,ioos:station:USF.COMPS:C12:1,2014-12-14T20:05:00Z,27.4980,-83.7220,18.62,1111122 
COMPS,ioos:station:USF.COMPS:C12:1,2014-12-14T20:35:00Z,27.4980,-83.7220,18.84,1111122 
COMPS,ioos:station:USF.COMPS:C12:1,2014-12-14T21:05:00Z,27.4980,-83.7220,18.91,1111122 
COMPS,ioos:station:USF.COMPS:C12:1,2014-12-14T21:35:00Z,27.4980,-83.7220,19.01,1111122 
COMPS,ioos:station:USF.COMPS:C12:1,2014-12-14T22:05:00Z,27.4980,-83.7220,19.1,1111122 
COMPS,ioos:station:USF.COMPS:C12:1,2014-12-14T22:35:00Z,27.4980,-83.7220,18.81,1111122 
COMPS,ioos:station:USF.COMPS:C12:1,2014-12-14T23:05:00Z,27.4980,-83.7220,18.68,1111122 
COMPS,ioos:station:USF.COMPS:C12:1,2014-12-14T23:35:00Z,27.4980,-83.7220,18.65,1111122 
COMPS,ioos:station:USF.COMPS:C12:1,2014-12-15T00:05:00Z,27.4980,-83.7220,18.67,1111122 
COMPS,ioos:station:USF.COMPS:C12:1,2014-12-15T00:35:00Z,27.4980,-83.7220,18.58,1111122 
COMPS,ioos:station:USF.COMPS:C12:1,2014-12-15T01:05:00Z,27.4980,-83.7220,18.55,1111122 
COMPS,ioos:station:USF.COMPS:C12:1,2014-12-15T01:35:00Z,27.4980,-83.7220,18.55,1111122 
COMPS,ioos:station:USF.COMPS:C12:1,2014-12-15T02:05:00Z,27.4980,-83.7220,18.48,1111122 
COMPS,ioos:station:USF.COMPS:C12:1,2014-12-15T02:35:00Z,27.4980,-83.7220,18.45,1111122 
COMPS,ioos:station:USF.COMPS:C12:1,2014-12-15T03:05:00Z,27.4980,-83.7220,18.38,1111122 
COMPS,ioos:station:USF.COMPS:C12:1,2014-12-15T03:35:00Z,27.4980,-83.7220,18.41,1111122 
COMPS,ioos:station:USF.COMPS:C12:1,2014-12-15T04:05:00Z,27.4980,-83.7220,18.35,1111122 
COMPS,ioos:station:USF.COMPS:C12:1,2014-12-15T04:35:00Z,27.4980,-83.7220,18.31,1111122 
COMPS,ioos:station:USF.COMPS:C12:1,2014-12-15T05:05:00Z,27.4980,-83.7220,18.3,1111122 
COMPS,ioos:station:USF.COMPS:C12:1,2014-12-15T05:35:00Z,27.4980,-83.7220,18.29,1111122 
COMPS,ioos:station:USF.COMPS:C12:1,2014-12-15T06:05:00Z,27.4980,-83.7220,18.35,1111122 
COMPS,ioos:station:USF.COMPS:C12:1,2014-12-15T06:35:00Z,27.4980,-83.7220,18.35,1111122 
COMPS,ioos:station:USF.COMPS:C12:1,2014-12-15T07:05:00Z,27.4980,-83.7220,18.22,1111122 
COMPS,ioos:station:USF.COMPS:C12:1,2014-12-15T07:35:00Z,27.4980,-83.7220,18.33,1111122 
COMPS,ioos:station:USF.COMPS:C12:1,2014-12-15T08:05:00Z,27.4980,-83.7220,18.23,1111122 
COMPS,ioos:station:USF.COMPS:C12:1,2014-12-15T08:35:00Z,27.4980,-83.7220,18.23,1111122 
COMPS,ioos:station:USF.COMPS:C12:1,2014-12-15T09:05:00Z,27.4980,-83.7220,18.15,1111122 
COMPS,ioos:station:USF.COMPS:C12:1,2014-12-15T09:35:00Z,27.4980,-83.7220,18.26,1111122 
COMPS,ioos:station:USF.COMPS:C12:1,2014-12-15T10:05:00Z,27.4980,-83.7220,18.29,1111122 
COMPS,ioos:station:USF.COMPS:C12:1,2014-12-15T10:35:00Z,27.4980,-83.7220,18.47,1111122 
COMPS,ioos:station:USF.COMPS:C12:1,2014-12-15T11:05:00Z,27.4980,-83.7220,18.37,1111122 
COMPS,ioos:station:USF.COMPS:C12:1,2014-12-15T11:35:00Z,27.4980,-83.7220,18.39,1111122 
COMPS,ioos:station:USF.COMPS:C12:1,2014-12-15T12:05:00Z,27.4980,-83.7220,18.35,1111122 
COMPS,ioos:station:USF.COMPS:C12:1,2014-12-15T12:35:00Z,27.4980,-83.7220,18.72,1111122 
COMPS,ioos:station:USF.COMPS:C12:1,2014-12-15T13:05:00Z,27.4980,-83.7220,19.15,1111122 
COMPS,ioos:station:USF.COMPS:C12:1,2014-12-15T13:35:00Z,27.4980,-83.7220,19.15,1111122 
COMPS,ioos:station:USF.COMPS:C12:1,2014-12-15T14:05:00Z,27.4980,-83.7220,19.47,1111122 
COMPS,ioos:station:USF.COMPS:C12:1,2014-12-15T14:35:00Z,27.4980,-83.7220,19.51,1111122 
COMPS,ioos:station:USF.COMPS:C12:1,2014-12-15T15:05:00Z,27.4980,-83.7220,19.78,1111122 
COMPS,ioos:station:USF.COMPS:C12:1,2014-12-15T15:35:00Z,27.4980,-83.7220,20.23,1111122 
COMPS,ioos:station:USF.COMPS:C12:1,2014-12-15T16:05:00Z,27.4980,-83.7220,19.77,1111122 
COMPS,ioos:station:USF.COMPS:C12:1,2014-12-15T16:35:00Z,27.4980,-83.7220,19.7,1111122 
COMPS,ioos:station:USF.COMPS:C12:1,2014-12-15T17:05:00Z,27.4980,-83.7220,19.65,1111122 
COMPS,ioos:station:USF.COMPS:C12:1,2014-12-15T17:35:00Z,27.4980,-83.7220,19.64,1111122 
COMPS,ioos:station:USF.COMPS:C12:1,2014-12-15T18:05:00Z,27.4980,-83.7220,19.52,1111122 
COMPS,ioos:station:USF.COMPS:C12:1,2014-12-15T18:35:00Z,27.4980,-83.7220,19.43,1111122 
COMPS,ioos:station:USF.COMPS:C12:1,2014-12-15T19:05:00Z,27.4980,-83.7220,19.55,1111122 
COMPS,ioos:station:USF.COMPS:C12:1,2014-12-15T19:35:00Z,27.4980,-83.7220,19.74,1111122 
COMPS,ioos:station:USF.COMPS:C12:1,2014-12-15T20:05:00Z,27.4980,-83.7220,19.77,1111122 
COMPS,ioos:station:USF.COMPS:C12:1,2014-12-15T20:35:00Z,27.4980,-83.7220,20.19,1111122 
COMPS,ioos:station:USF.COMPS:C12:1,2014-12-15T21:05:00Z,27.4980,-83.7220,20.3,1111122 
COMPS,ioos:station:USF.COMPS:C12:1,2014-12-15T21:35:00Z,27.4980,-83.7220,20.46,1111122 
COMPS,ioos:station:USF.COMPS:C12:1,2014-12-15T22:05:00Z,27.4980,-83.7220,20.22,1111122 
COMPS,ioos:station:USF.COMPS:C12:1,2014-12-15T22:35:00Z,27.4980,-83.7220,19.68,1111122 
COMPS,ioos:station:USF.COMPS:C12:1,2014-12-15T23:05:00Z,27.4980,-83.7220,19.4,1111122 
COMPS,ioos:station:USF.COMPS:C12:1,2014-12-15T23:35:00Z,27.4980,-83.7220,19.42,1111122 
COMPS,ioos:station:USF.COMPS:C12:1,2014-12-16T00:05:00Z,27.4980,-83.7220,19.5,1111122 
COMPS,ioos:station:USF.COMPS:C12:1,2014-12-16T00:35:00Z,27.4980,-83.7220,19.54,1111122 
COMPS,ioos:station:USF.COMPS:C12:1,2014-12-16T01:05:00Z,27.4980,-83.7220,19.68,1111122 
COMPS,ioos:station:USF.COMPS:C12:1,2014-12-16T01:35:00Z,27.4980,-83.7220,19.68,1111122 
COMPS,ioos:station:USF.COMPS:C12:1,2014-12-16T02:05:00Z,27.4980,-83.7220,19.76,1111122 
COMPS,ioos:station:USF.COMPS:C12:1,2014-12-16T02:35:00Z,27.4980,-83.7220,19.65,1111122 
COMPS,ioos:station:USF.COMPS:C12:1,2014-12-16T03:05:00Z,27.4980,-83.7220,19.55,1111122 
COMPS,ioos:station:USF.COMPS:C12:1,2014-12-16T03:35:00Z,27.4980,-83.7220,19.49,1111122 
COMPS,ioos:station:USF.COMPS:C12:1,2014-12-16T04:05:00Z,27.4980,-83.7220,19.52,1111122 
COMPS,ioos:station:USF.COMPS:C12:1,2014-12-16T04:35:00Z,27.4980,-83.7220,19.58,1111122 
COMPS,ioos:station:USF.COMPS:C12:1,2014-12-16T05:05:00Z,27.4980,-83.7220,19.51,1111122 
COMPS,ioos:station:USF.COMPS:C12:1,2014-12-16T05:35:00Z,27.4980,-83.7220,19.74,1111122 
COMPS,ioos:station:USF.COMPS:C12:1,2014-12-16T06:05:00Z,27.4980,-83.7220,19.83,1111122 
COMPS,ioos:station:USF.COMPS:C12:1,2014-12-16T06:35:00Z,27.4980,-83.7220,19.77,1111122 
COMPS,ioos:station:USF.COMPS:C12:1,2014-12-16T07:05:00Z,27.4980,-83.7220,19.72,1111122 
COMPS,ioos:station:USF.COMPS:C12:1,2014-12-16T07:35:00Z,27.4980,-83.7220,19.74,1111122 
COMPS,ioos:station:USF.COMPS:C12:1,2014-12-16T08:05:00Z,27.4980,-83.7220,19.8,1111122 
COMPS,ioos:station:USF.COMPS:C12:1,2014-12-16T08:35:00Z,27.4980,-83.7220,19.94,1111122 
COMPS,ioos:station:USF.COMPS:C12:1,2014-12-16T09:05:00Z,27.4980,-83.7220,19.94,1111122 
COMPS,ioos:station:USF.COMPS:C12:1,2014-12-16T09:35:00Z,27.4980,-83.7220,20.14,1111122 
COMPS,ioos:station:USF.COMPS:C12:1,2014-12-16T10:05:00Z,27.4980,-83.7220,20.19,1111122 
COMPS,ioos:station:USF.COMPS:C12:1,2014-12-16T10:35:00Z,27.4980,-83.7220,20.28,1111122 
COMPS,ioos:station:USF.COMPS:C12:1,2014-12-16T11:05:00Z,27.4980,-83.7220,20.33,1111122 
COMPS,ioos:station:USF.COMPS:C12:1,2014-12-16T11:35:00Z,27.4980,-83.7220,20.5,1111122 
COMPS,ioos:station:USF.COMPS:C12:1,2014-12-16T12:05:00Z,27.4980,-83.7220,20.48,1111122 
COMPS,ioos:station:USF.COMPS:C12:1,2014-12-16T12:35:00Z,27.4980,-83.7220,20.81,1111122 
COMPS,ioos:station:USF.COMPS:C12:1,2014-12-16T13:05:00Z,27.4980,-83.7220,21.0,1111122 
COMPS,ioos:station:USF.COMPS:C12:1,2014-12-16T13:35:00Z,27.4980,-83.7220,21.29,1111122 
COMPS,ioos:station:USF.COMPS:C12:1,2014-12-16T14:05:00Z,27.4980,-83.7220,21.22,1111122 
COMPS,ioos:station:USF.COMPS:C12:1,2014-12-16T14:35:00Z,27.4980,-83.7220,21.33,1111122 
COMPS,ioos:station:USF.COMPS:C12:1,2014-12-16T15:05:00Z,27.4980,-83.7220,21.2,1111122 
COMPS,ioos:station:USF.COMPS:C12:1,2014-12-16T15:35:00Z,27.4980,-83.7220,21.21,1111122 
COMPS,ioos:station:USF.COMPS:C12:1,2014-12-16T16:05:00Z,27.4980,-83.7220,21.27,1111122 
COMPS,ioos:station:USF.COMPS:C12:1,2014-12-16T16:35:00Z,27.4980,-83.7220,21.26,1111122 
COMPS,ioos:station:USF.COMPS:C12:1,2014-12-16T17:05:00Z,27.4980,-83.7220,21.28,1111122 
COMPS,ioos:station:USF.COMPS:C12:1,2014-12-16T17:35:00Z,27.4980,-83.7220,21.38,1111122 
COMPS,ioos:station:USF.COMPS:C12:1,2014-12-16T18:05:00Z,27.4980,-83.7220,21.42,1111122 